Location: Newark
(47.5833°N, 8.1500°E)
Time: 17:59:45
(UTC+00:00)

Transit 2A - Pass Details

Date: 03 November 2020
Orbit: 595 x 964 km, 66.7° (Epoch: 29 November)

Event Time Altitude Azimuth Distance (km) Brightness Sun altitude
Rises 21:36:29 0° 169° (S) 3,620 - -52.4°
Reaches altitude 10° 21:39:34 10° 155° (SSE) 2,692 - -52.7°
Maximum altitude 21:44:19 23° 107° (ESE) 1,933 - -53.2°
Drops below altitude 10° 21:49:01 10° 58° (ENE) 2,666 - -53.6°
Sets 21:52:02 0° 44° (NE) 3,578 - -53.9°
